Location: Altleiningen
(49.5078°N, 8.0741°E)
Time: 04:29:36
(UTC+00:00)

Cosmos 1943 Rocket - Pass Details

Date: 03 March 2021
Orbit: 811 x 844 km, 71.0° (Epoch: 11 April)

Event Time Altitude Azimuth Distance (km) Brightness Sun altitude
Rises 20:42:35 0° 333° (NNW) 3,416 6.2 -33.2°
Reaches altitude 10° 20:45:13 10° 341° (NNW) 2,477 5.2 -33.6°
Enters shadow 20:48:14 28° 4° (N) 1,547 3.7 -34.0°
